AWOS - Automated Weather Observation System

 

0
0
0
0

 

AWOS from is a family of real-time weather observation systems specially designed to detect, report and disseminate weather conditions at airports. It intended use is for various sized of airports, ranging from small domestic landing strips or remotely operated airports to large international airports.

We can offer a turn-key solution including sensors, installation, training comissioning etc, or we can offer you just the customized software package and the rest is done by the customer himself or by a 3rd party. We can also offer the sensors preferred by the customer or we can use the sensors existing at the airport today and implement them in the new AWOS system.

Real Time Data from Combitech in Linköping

METAR CABX 211420Z AUTO VRB03KT //// R01///// R19///// // ///////// 21/M05 Q1013

Linköping Sweden, Lat: 58.39172, Lon: 15.56505

Meet us at World ATM Madrid, 12 -14 March


AWOS7 installed and operational at Hagfors airport Sweden ESOH.

Our AWOS time on site for instalation work at Hagfors airport in Sweden.

AWOS7 installed with upgrades on..


Show all


AWOS Airport weather data:
     http://wx.awos.se

 

2019-04-21 14:39:16